Date,TemperatureHighF,TemperatureAvgF,TemperatureLowF,DewpointHighF,DewpointAvgF,DewpointLowF,HumidityHigh,HumidityAvg,HumidityLow,PressureMaxIn,PressureMinIn,WindSpeedMaxMPH,WindSpeedAvgMPH,GustSpeedMaxMPH,PrecipitationSumIn
2013-1-1,37.9,33.1,24.0,29.0,22.3,12.0,75,65,57,29.90,29.74,12,2,14,0.02
2013-1-2,31.7,24.1,17.4,16.0,12.5,8.0,74,62,52,30.07,29.89,11,1,14,0.01
2013-1-3,26.3,18.6,10.0,15.0,5.2,-1.0,79,57,37,30.12,30.00,4,1,14,0.00
2013-1-4,39.2,31.1,19.3,27.0,22.0,14.0,83,70,55,29.99,29.83,8,2,22,0.08
2013-1-5,44.6,34.3,26.5,27.0,23.3,21.0,83,65,46,30.24,29.87,6,1,13,0.16
2013-1-6,42.9,33.9,26.8,36.0,29.6,22.0,94,85,72,30.20,29.93,11,1,13,0.10
2013-1-7,45.7,34.7,28.1,32.0,27.9,24.0,94,78,47,30.39,29.95,3,0,11,0.01
2013-1-8,47.4,39.1,27.7,37.0,33.1,26.0,94,80,60,30.38,30.28,13,2,19,0.01
2013-1-9,46.3,38.8,27.2,42.0,34.8,26.0,97,86,68,30.37,30.01,12,1,19,0.00
2013-1-10,48.1,42.1,35.1,35.0,26.5,24.0,67,55,42,30.50,30.07,10,2,22,0.00
2013-1-11,41.5,36.4,29.7,38.0,30.4,24.0,95,79,66,30.49,30.19,4,0,10,0.16
2013-1-12,45.7,42.5,39.2,45.0,41.4,38.0,97,96,95,30.20,30.09,6,2,9,0.06
2013-1-13,52.3,47.2,42.9,52.0,46.5,42.0,98,97,94,30.15,30.01,5,1,10,0.02
2013-1-14,60.9,52.4,41.5,56.0,46.9,33.0,98,83,52,30.23,29.93,11,1,12,0.05
2013-1-15,42.3,39.1,37.2,38.0,34.7,31.0,94,84,75,30.27,30.17,5,0,6,0.16
2013-1-16,37.8,35.2,33.2,36.0,33.7,31.0,97,94,76,30.21,29.74,4,0,7,0.55
2013-1-17,44.3,37.5,31.9,35.0,30.9,25.0,96,78,58,30.05,29.85,9,1,13,0.00
2013-1-18,33.2,24.9,18.8,26.0,9.5,1.0,90,55,32,30.47,30.00,9,1,17,0.01
2013-1-19,47.9,38.4,19.9,39.0,29.7,11.0,79,71,58,30.41,29.92,11,3,23,0.01
2013-1-20,54.5,45.6,30.4,42.0,32.7,12.0,85,62,38,29.92,29.58,14,3,21,0.00
2013-1-21,31.2,27.3,22.4,25.0,15.1,9.0,92,63,42,30.09,29.76,4,0,11,0.00
2013-1-22,26.2,21.9,14.8,23.0,9.0,-1.0,92,61,35,30.07,29.72,9,1,18,0.07
2013-1-23,17.2,13.0,8.9,2.0,-3.0,-8.0,64,49,41,30.14,30.05,10,2,16,0.00
2013-1-24,20.9,13.2,5.5,-1.0,-5.0,-7.0,58,45,33,30.20,30.05,8,2,17,0.00
2013-1-25,24.5,18.0,10.3,16.0,0.2,-6.0,86,47,33,30.29,30.03,5,1,16,0.00
2013-1-26,28.2,19.5,13.0,16.0,7.8,-3.0,88,63,36,30.21,29.96,12,1,18,0.03
2013-1-27,33.5,22.1,14.3,8.0,4.9,2.0,63,49,33,30.44,30.21,7,1,15,0.01
2013-1-28,33.5,26.8,17.7,31.0,17.7,4.0,95,71,41,30.43,29.98,7,1,10,0.00
2013-1-29,37.4,34.1,31.3,35.0,32.8,30.0,96,95,91,30.17,29.96,2,0,5,0.18
2013-1-30,58.6,49.5,36.1,56.0,48.3,35.0,98,95,91,30.14,29.54,13,4,24,0.05
2013-1-31,56.3,48.8,32.8,56.0,37.9,14.0,97,69,38,29.61,29.06,32,6,35,0.54
2013-2-1,33.9,29.7,23.4,17.0,11.6,6.0,58,47,37,30.09,29.61,11,3,22,0.00
2013-2-2,30.4,26.5,20.9,23.0,13.0,6.0,82,58,44,30.24,30.03,6,1,13,0.00
2013-2-3,38.3,27.9,21.9,26.0,21.9,18.0,88,78,59,30.04,29.70,6,1,13,0.01
2013-2-4,32.5,26.9,23.0,22.0,13.1,8.0,86,58,40,29.94,29.70,15,2,21,0.00
2013-2-5,27.7,25.6,23.5,26.0,18.8,12.0,92,76,60,30.02,29.90,4,1,7,0.00
2013-2-6,40.8,32.0,27.6,30.0,22.2,7.0,93,70,41,30.27,29.88,9,1,14,0.05
2013-2-7,36.0,27.0,20.3,19.0,9.7,6.0,75,50,33,30.50,30.28,7,1,9,0.00
2013-2-8,33.5,31.8,25.6,32.0,28.8,19.0,96,88,76,30.44,29.45,12,5,18,0.04
2013-2-11,46.1,35.7,18.2,45.0,34.4,16.0,98,95,89,30.35,29.59,11,2,18,1.00
2013-2-12,46.3,40.0,31.4,42.0,31.5,26.0,98,73,51,29.88,29.60,9,2,20,0.00
2013-2-13,45.1,34.6,27.2,29.0,26.1,22.0,88,72,48,29.87,29.64,5,0,8,0.00
2013-2-14,48.1,35.6,28.5,31.0,28.0,23.0,94,76,42,30.00,29.67,6,0,8,0.16
2013-2-15,48.1,38.5,27.2,39.0,34.7,25.0,96,87,66,30.02,29.93,9,1,14,0.00
2013-2-16,38.0,33.9,31.4,34.0,32.0,30.0,97,92,80,29.93,29.62,3,0,11,0.02
2013-2-17,31.2,23.6,17.6,29.0,16.2,4.0,93,75,48,29.67,29.33,16,3,25,0.00
2013-2-18,31.8,23.8,15.9,8.0,4.8,3.0,59,45,31,30.16,29.67,11,3,22,0.06
2013-2-19,47.1,38.1,23.4,45.0,30.8,8.0,97,76,44,30.16,29.57,7,2,15,0.74
2013-2-20,43.2,34.0,26.7,42.0,22.1,12.0,96,64,43,29.78,29.55,12,3,21,0.00
2013-2-21,36.1,29.2,25.6,18.0,15.7,14.0,67,58,44,30.12,29.77,12,2,17,0.00
2013-2-22,39.4,33.3,28.1,28.0,24.1,18.0,79,69,61,30.34,30.15,6,1,12,0.00
2013-2-23,39.0,35.6,32.6,36.0,31.5,27.0,96,85,76,30.30,29.83,11,4,14,0.28
2013-2-24,42.6,37.6,31.9,42.0,36.5,31.0,97,96,93,29.84,29.59,8,2,13,0.49
2013-2-25,45.9,35.8,29.6,35.0,31.1,28.0,96,84,60,30.23,29.84,3,0,8,0.07
2013-2-26,45.6,38.5,33.9,35.0,31.1,27.0,91,76,51,30.31,30.10,9,3,12,0.00
2013-2-27,43.2,41.8,38.3,42.0,40.7,35.0,97,95,87,30.09,29.54,19,8,28,0.73
2013-2-28,49.0,40.7,36.3,44.0,38.8,35.0,97,93,75,29.62,29.49,2,0,6,0.00
2013-3-1,46.5,40.3,36.0,37.0,32.9,29.0,94,76,59,29.65,29.49,4,1,12,0.00
2013-3-2,44.8,39.0,34.4,31.0,28.8,27.0,75,67,56,29.66,29.59,7,1,11,0.00
2013-3-3,42.1,37.0,32.8,30.0,28.7,27.0,87,72,59,29.61,29.54,6,1,12,0.00
2013-3-4,43.4,35.9,29.8,30.0,24.9,23.0,88,66,49,29.70,29.55,14,2,21,0.00
2013-3-5,49.6,38.3,30.9,34.0,29.3,24.0,94,71,54,30.03,29.70,6,1,12,0.00
2013-3-6,43.5,38.3,34.1,37.0,35.0,32.0,94,88,73,30.02,29.89,16,6,28,0.04
2013-3-7,36.9,34.4,33.1,35.0,33.0,32.0,96,95,90,29.90,29.84,15,5,20,0.69
2013-3-8,37.1,33.9,32.5,34.0,32.3,31.0,96,94,80,30.04,29.83,11,3,17,0.27
2013-3-9,44.7,37.1,29.7,35.0,31.3,28.0,94,80,65,30.30,30.04,8,2,18,0.78
2013-3-10,51.9,38.2,29.7,38.0,33.1,28.0,95,83,57,30.37,30.30,7,1,11,0.00
2013-3-11,48.1,40.9,35.3,42.0,37.7,33.0,93,88,79,30.32,30.16,5,1,12,0.00
2013-3-12,53.2,49.3,43.6,52.0,47.8,42.0,97,94,90,30.16,29.73,13,4,24,0.90
2013-3-13,53.4,46.0,34.7,50.0,36.5,24.0,97,72,39,29.77,29.68,7,1,15,0.02
2013-3-14,37.6,33.0,25.6,28.0,19.1,8.0,79,58,42,29.82,29.70,16,2,17,0.00
2013-3-15,41.1,31.4,21.8,29.0,16.7,8.0,74,56,28,29.87,29.65,9,2,18,0.00
2013-3-16,41.2,35.6,29.5,29.0,21.1,11.0,76,58,30,29.84,29.67,4,0,12,0.00
2013-3-17,42.7,33.7,27.3,25.0,16.9,7.0,78,53,28,30.27,29.84,5,0,11,0.00
2013-3-18,38.2,30.6,21.0,27.0,15.0,2.0,75,53,40,30.43,30.20,9,2,15,0.00
2013-3-19,41.1,35.7,31.4,40.0,34.4,29.0,96,94,82,30.19,29.49,16,5,22,0.83
2013-3-20,42.0,34.9,30.0,31.0,23.9,20.0,92,67,43,29.80,29.66,10,2,23,0.01
2013-3-21,43.2,33.7,29.7,31.0,28.0,24.0,95,80,54,29.80,29.57,4,0,9,0.00
2013-3-22,40.8,34.1,26.4,29.0,23.4,20.0,95,67,43,29.74,29.58,16,2,21,0.28
2013-3-23,45.5,37.0,31.0,26.0,22.3,19.0,76,57,36,29.78,29.64,16,3,22,0.00
2013-3-24,53.5,39.5,32.1,30.0,25.8,21.0,85,60,38,29.82,29.70,8,2,14,0.00
2013-3-25,50.1,38.5,31.0,36.0,30.8,27.0,91,75,47,29.74,29.44,17,4,26,0.04
2013-3-26,49.9,40.3,33.2,34.0,30.1,25.0,94,69,42,29.77,29.45,7,1,13,0.05
2013-3-27,54.6,44.0,31.3,33.0,25.7,22.0,72,51,32,29.84,29.72,7,1,13,0.00
2013-3-28,50.6,42.8,37.5,39.0,34.3,30.0,92,73,48,30.00,29.82,4,1,11,0.01
2013-3-29,57.6,46.8,37.4,38.0,34.5,31.0,82,64,41,30.03,29.96,6,1,11,0.01
2013-3-30,57.6,47.9,38.0,34.0,31.7,22.0,72,56,27,30.08,29.98,7,1,14,0.00
2013-3-31,55.8,45.1,31.0,44.0,33.2,25.0,94,65,38,30.11,29.72,9,2,15,0.19
2013-4-1,54.7,47.4,36.8,46.0,40.3,16.0,97,78,40,29.79,29.55,11,4,24,0.18
2013-4-2,42.4,36.2,30.9,20.0,15.6,10.0,60,44,29,29.96,29.79,11,2,20,0.00
2013-4-3,46.3,38.2,31.8,18.0,15.3,13.0,54,40,28,30.15,29.94,12,3,21,0.00
2013-4-4,49.0,39.4,30.3,34.0,23.7,15.0,83,55,31,30.30,30.09,8,2,15,0.00
2013-4-5,55.8,45.3,39.1,44.0,36.2,26.0,90,72,44,30.09,29.63,6,1,14,0.01
2013-4-6,50.6,41.2,33.8,28.0,19.1,8.0,78,45,18,30.32,29.84,8,2,15,0.00
2013-4-7,50.2,43.0,29.4,44.0,35.1,26.0,95,75,42,30.32,30.04,16,4,24,0.00
2013-4-8,64.5,51.9,45.7,47.0,43.9,40.0,94,76,47,30.10,29.96,8,2,12,0.00
2013-4-9,77.0,57.3,46.1,55.0,46.7,40.0,96,72,31,30.09,29.83,7,2,15,0.04
2013-4-10,67.9,52.4,45.7,52.0,46.0,43.0,94,80,54,29.98,29.84,9,3,14,0.38
2013-4-11,56.1,48.2,45.5,47.0,43.0,35.0,97,83,62,30.11,29.79,7,2,11,0.01
2013-4-12,45.4,42.3,39.3,40.0,36.6,32.0,96,81,64,30.12,29.69,22,6,27,0.54
2013-4-13,53.9,43.9,38.5,43.0,39.6,37.0,96,86,61,29.93,29.68,9,2,14,0.04
2013-4-14,56.3,47.4,39.7,41.0,35.4,28.0,92,66,38,30.19,29.92,7,1,14,0.00
2013-4-15,57.7,45.9,36.5,40.0,35.1,28.0,89,67,45,30.39,30.19,10,2,12,0.00
2013-4-16,56.7,48.5,37.6,49.0,42.9,36.0,96,82,58,30.40,30.12,16,3,19,0.01
2013-4-17,70.1,55.9,42.9,52.0,46.5,39.0,94,73,38,30.31,30.08,9,1,19,0.01
2013-4-18,61.5,49.7,37.8,49.0,40.1,35.0,93,72,43,30.40,30.15,8,2,18,0.00
2013-4-19,69.6,59.7,51.9,63.0,57.7,49.0,97,93,79,30.15,29.73,18,4,25,0.03
2013-4-20,60.4,53.6,46.7,60.0,46.3,32.0,98,78,48,30.18,29.66,11,2,24,0.36
2013-4-21,58.8,45.5,34.9,34.0,28.0,23.0,74,52,31,30.66,30.18,8,1,13,0.00
2013-4-22,56.4,43.9,33.8,39.0,33.6,30.0,87,69,42,30.70,30.53,17,5,19,0.00
2013-4-23,45.9,43.2,41.2,44.0,41.0,34.0,96,91,75,30.53,30.00,11,3,17,0.13
2013-4-24,62.1,49.6,43.2,51.0,45.2,42.0,96,86,63,29.98,29.85,13,3,18,0.01
2013-4-25,69.3,54.4,43.7,51.0,43.3,33.0,97,70,28,30.23,29.88,5,1,15,0.02
2013-4-26,63.6,52.7,42.2,45.0,39.9,30.0,88,63,44,30.39,30.23,8,2,11,0.00
2013-4-27,62.0,50.3,38.3,46.0,38.9,32.0,97,68,37,30.40,30.31,9,1,11,0.00
2013-4-28,66.7,52.2,38.9,50.0,41.9,34.0,96,72,36,30.34,30.25,6,1,13,0.00
2013-4-29,64.6,53.2,44.7,48.0,38.2,21.0,96,64,20,30.27,30.23,8,1,11,0.00
2013-4-30,69.1,53.3,37.9,43.0,36.4,29.0,95,59,23,30.35,30.24,8,1,12,0.00
2013-5-1,68.6,54.0,39.5,51.0,44.0,35.0,91,71,41,30.45,30.35,10,2,15,0.00
2013-5-2,74.7,57.3,41.4,49.0,43.0,40.0,97,65,29,30.44,30.34,7,1,13,0.00
2013-5-3,61.2,50.5,41.3,47.0,42.9,39.0,94,76,58,30.46,30.34,10,2,17,0.00
2013-5-4,63.4,50.7,40.1,46.0,40.9,39.0,96,72,44,30.33,30.28,10,3,16,0.00
2013-5-5,63.8,50.6,38.3,47.0,42.5,37.0,96,76,48,30.29,30.23,9,3,15,0.00
2013-5-6,69.6,54.1,45.0,54.0,47.7,43.0,95,80,52,30.28,30.16,9,1,11,0.00
2013-5-7,72.9,59.4,46.5,62.0,54.5,46.0,97,85,67,30.18,30.12,7,1,12,0.00
2013-5-8,72.0,61.9,55.0,63.0,58.9,54.0,97,90,73,30.18,30.02,10,2,17,0.24
2013-5-9,67.0,59.8,53.8,65.0,58.4,53.0,98,95,86,30.03,29.86,4,0,8,0.25
2013-5-10,77.8,64.0,54.5,63.0,56.8,53.0,98,80,51,29.95,29.88,7,1,10,0.00
2013-5-11,65.4,59.7,55.1,61.0,58.0,54.0,97,94,83,29.94,29.71,9,2,17,0.72
2013-5-12,68.5,60.0,50.4,61.0,53.8,37.0,98,82,53,29.81,29.58,7,1,14,0.09
2013-5-13,58.9,51.8,41.3,40.0,35.0,30.0,82,54,39,30.00,29.81,7,1,18,0.00
2013-5-14,58.2,50.0,40.7,40.0,35.0,31.0,77,58,39,30.04,29.96,8,1,15,0.00
2013-5-15,62.9,51.7,40.2,54.0,44.4,36.0,95,78,45,30.05,29.68,10,1,19,0.01
2013-5-16,77.5,63.1,49.3,53.0,49.8,43.0,97,66,30,29.77,29.65,8,1,14,0.00
2013-5-17,70.8,59.6,48.9,51.0,46.0,42.0,90,63,40,30.20,29.77,8,1,14,0.00
2013-5-18,70.6,57.3,44.7,56.0,49.5,43.0,96,77,42,30.29,30.20,7,1,9,0.00
2013-5-19,69.4,58.3,47.6,55.0,51.1,46.0,96,79,52,30.34,30.23,6,1,10,0.16
2013-5-20,78.4,64.6,55.8,69.0,61.2,55.0,98,89,70,30.22,29.92,5,1,11,0.16
2013-5-21,81.0,66.9,54.8,70.0,62.1,53.0,97,85,68,29.95,29.83,6,1,13,0.08
2013-5-22,73.2,60.4,52.5,66.0,57.6,51.0,97,91,74,29.96,29.88,7,1,9,0.01
2013-5-23,67.2,63.7,60.6,65.0,62.4,60.0,98,95,91,29.93,29.84,13,2,16,0.14
2013-5-24,65.6,61.5,53.4,65.0,60.8,52.0,99,97,93,29.84,29.67,14,2,22,1.03
2013-5-25,54.0,50.3,42.1,53.0,48.9,40.0,97,95,90,29.75,29.67,9,1,13,0.13
2013-5-26,60.0,50.7,42.2,46.0,41.3,39.0,92,71,52,30.10,29.72,11,2,17,0.01
2013-5-27,72.8,58.0,43.7,47.0,43.2,36.0,93,62,29,30.15,30.07,8,1,13,0.00
2013-5-28,73.0,59.9,45.1,57.0,50.8,43.0,96,74,52,30.22,30.15,6,1,9,0.00
2013-5-29,72.2,61.3,56.9,65.0,59.1,56.0,98,93,79,30.20,30.00,8,1,14,0.48
2013-5-30,88.5,73.2,60.9,73.0,66.1,60.0,97,80,56,30.08,30.00,6,0,9,0.14
2013-5-31,90.7,77.1,64.6,75.0,66.4,62.0,95,71,46,30.07,29.96,4,1,12,0.00
2013-6-1,85.1,71.7,60.5,70.0,64.7,59.0,96,80,58,29.98,29.91,5,0,14,0.00
2013-6-2,75.5,67.0,62.1,68.0,63.3,60.0,95,88,75,29.92,29.82,13,2,16,0.00
2013-6-3,67.8,64.0,61.9,67.0,63.3,61.0,98,97,94,29.84,29.78,7,1,13,0.93
2013-6-4,73.9,63.5,53.8,62.0,49.1,43.0,98,62,40,30.05,29.78,7,1,11,0.00
2013-6-5,74.8,61.4,49.5,53.0,49.6,46.0,93,68,41,30.17,30.05,11,1,13,0.00
2013-6-6,72.8,62.1,51.9,61.0,54.5,51.0,97,77,56,30.18,30.07,7,1,11,0.00
2013-6-7,62.9,59.3,57.5,62.0,57.3,54.0,98,93,80,30.08,29.73,8,3,25,2.02
2013-6-8,75.1,66.1,57.9,67.0,62.8,57.0,98,89,70,29.98,29.52,11,2,19,0.50
2013-6-9,78.4,68.7,58.7,63.0,59.5,56.0,96,75,48,30.15,29.98,5,0,11,0.00
2013-6-10,74.9,65.2,58.9,63.0,60.0,57.0,97,84,61,30.17,29.97,9,1,14,0.54
2013-6-11,77.3,66.1,56.4,70.0,64.0,55.0,98,93,77,29.95,29.53,10,1,14,1.05
2013-6-12,72.3,64.0,55.7,58.0,56.2,54.0,98,77,55,29.79,29.55,7,1,15,0.00
2013-6-13,66.8,59.6,53.1,59.0,55.4,51.0,95,86,70,29.81,29.58,10,2,15,0.25
2013-6-14,68.0,58.9,52.7,58.0,53.5,50.0,96,84,60,29.73,29.54,11,2,17,0.51
2013-6-15,79.6,68.6,57.9,56.0,52.6,45.0,87,61,32,29.94,29.74,6,0,11,0.00
2013-6-16,77.0,66.6,56.6,63.0,58.0,53.0,95,76,46,29.94,29.74,6,0,11,0.00
2013-6-17,82.0,71.5,62.5,69.0,64.2,60.0,94,79,59,29.90,29.77,6,1,11,0.02
2013-6-18,83.4,68.3,59.9,68.0,61.3,56.0,97,80,52,29.91,29.84,6,1,10,0.06
2013-6-19,79.0,66.2,57.5,58.0,55.1,48.0,95,71,37,30.13,29.84,5,1,10,0.01
2013-6-20,77.5,65.3,53.5,65.0,57.9,52.0,97,78,52,30.26,30.14,5,1,11,0.00
2013-6-21,77.7,67.7,58.3,64.0,57.5,52.0,91,71,54,30.27,30.21,9,1,12,0.00
2013-6-22,80.9,69.1,60.8,65.0,60.2,57.0,95,75,52,30.23,30.15,5,1,9,0.00
2013-6-23,82.0,72.2,63.7,70.0,67.0,62.0,96,84,65,30.17,30.05,6,1,12,0.00
2013-6-24,91.7,78.7,68.2,78.0,71.5,67.0,97,80,62,30.04,29.87,4,0,10,0.00
2013-6-25,91.4,77.7,67.8,74.0,69.0,65.0,91,76,48,29.91,29.74,5,0,10,0.00
2013-6-26,87.6,78.5,70.1,75.0,71.5,68.0,94,80,60,29.82,29.71,7,0,10,0.00
2013-6-27,82.1,71.6,67.7,72.0,68.7,66.0,96,90,71,29.82,29.73,5,1,9,0.00
2013-6-28,71.2,69.6,68.2,71.0,69.0,67.0,98,98,96,29.72,29.53,9,2,16,0.47
2013-6-29,75.8,70.5,68.6,72.0,69.3,68.0,99,96,83,29.73,29.51,8,1,14,0.35
2013-6-30,75.7,71.1,69.0,72.0,69.5,68.0,98,94,80,29.94,29.73,6,1,10,0.06
2013-7-1,75.1,71.4,69.3,74.0,70.6,69.0,99,97,93,30.09,29.94,8,1,12,0.24
2013-7-2,78.5,72.9,70.4,75.0,71.6,70.0,98,95,88,30.19,30.09,7,1,10,0.04
2013-7-3,84.8,76.1,70.3,76.0,72.3,69.0,97,88,73,30.21,30.16,5,1,13,0.00
2013-7-4,87.4,78.6,72.1,78.0,74.0,71.0,97,86,70,30.21,30.11,3,0,9,0.00
2013-7-5,89.6,79.6,72.4,79.0,73.7,70.0,94,83,67,30.16,30.05,7,1,10,0.00
2013-7-6,91.4,80.4,72.2,80.0,74.5,70.0,94,83,65,30.07,29.96,3,0,8,0.00
2013-7-7,92.0,81.4,73.3,79.0,74.0,70.0,96,80,55,30.00,29.89,5,0,11,0.00
2013-7-8,89.3,78.5,70.9,76.0,71.9,69.0,97,81,62,30.02,29.90,6,1,9,0.00
2013-7-9,82.1,73.2,68.8,74.0,70.2,67.0,96,90,75,30.07,29.99,3,0,7,0.04
2013-7-10,82.5,75.4,71.1,76.0,73.4,70.0,97,93,78,30.04,29.81,6,1,12,0.23
2013-7-11,77.5,73.7,71.3,75.0,72.0,70.0,97,94,88,29.88,29.78,3,0,11,0.20
2013-7-12,76.7,71.5,67.2,71.0,67.7,64.0,98,88,73,30.14,29.88,8,2,11,0.00
2013-7-13,84.8,72.7,67.4,76.0,70.5,66.0,98,93,73,30.28,30.14,5,1,8,0.55
2013-7-14,90.4,79.0,71.5,79.0,74.4,71.0,98,87,58,30.28,30.17,5,0,9,0.11
2013-7-15,97.2,82.3,74.0,77.0,74.7,73.0,97,80,49,30.18,30.08,6,0,8,0.01
2013-7-16,94.9,82.6,73.5,75.0,72.1,68.0,95,72,49,30.14,30.07,4,0,9,0.00
2013-7-17,90.4,79.9,70.8,75.0,71.1,69.0,95,76,55,30.16,30.02,5,1,9,0.00
2013-7-18,94.2,82.9,75.0,79.0,75.0,72.0,93,78,59,30.02,29.94,7,1,11,0.00
2013-7-19,92.8,82.4,75.1,82.0,76.7,74.0,96,83,63,29.93,29.76,9,1,12,0.00
2013-7-20,89.6,80.7,74.0,78.0,75.0,71.0,94,83,66,29.78,29.66,7,0,10,0.00
2013-7-21,86.1,75.9,68.9,72.0,69.1,66.0,93,80,61,29.96,29.78,4,0,6,0.01
2013-7-22,86.0,75.6,68.6,74.0,70.4,67.0,96,84,62,29.97,29.85,6,2,11,0.00
2013-7-23,82.1,76.0,72.6,77.0,73.8,71.0,98,93,81,29.84,29.54,6,1,12,0.18
2013-7-24,87.8,78.6,70.7,75.0,71.1,64.0,97,79,58,29.88,29.56,3,0,9,0.00
2013-7-25,73.6,65.3,62.0,63.0,59.6,57.0,93,82,67,30.03,29.88,7,2,13,0.03
2013-7-26,69.6,65.5,62.4,68.0,64.0,61.0,97,95,89,30.00,29.88,7,1,12,0.29
2013-7-27,82.6,72.1,63.9,71.0,67.4,63.0,98,86,61,30.05,29.99,4,1,12,0.03
2013-7-28,83.8,73.4,70.2,75.0,71.0,69.0,98,92,72,29.99,29.92,3,0,10,0.14
2013-7-29,82.6,74.2,67.7,75.0,70.9,67.0,98,89,74,30.02,29.97,10,1,11,0.00
2013-7-30,84.5,73.8,63.6,69.0,62.1,59.0,95,69,43,30.07,30.00,3,0,11,0.00
2013-7-31,82.5,71.6,62.0,66.0,63.3,60.0,93,76,55,30.10,30.04,8,0,9,0.00
2013-8-1,80.4,69.8,63.2,69.0,64.9,62.0,98,85,55,30.04,29.86,7,1,10,0.13
2013-8-2,83.3,72.6,64.3,71.0,66.7,63.0,98,83,51,29.87,29.78,5,0,11,0.42
2013-8-3,77.5,70.3,67.6,69.0,66.5,64.0,95,88,74,29.87,29.78,4,0,7,0.01
2013-8-4,81.4,70.3,60.1,64.0,59.6,56.0,93,71,44,29.85,29.75,6,0,13,0.01
2013-8-5,78.8,66.7,58.4,57.0,53.0,47.0,85,65,36,30.02,29.86,6,1,12,0.00
2013-8-6,81.3,67.0,52.4,58.0,53.2,49.0,92,65,37,30.14,30.02,5,0,9,0.00
2013-8-7,79.8,68.0,58.1,65.0,58.3,51.0,98,74,37,30.17,30.12,5,1,11,0.00
2013-8-8,79.6,72.0,64.3,71.0,67.0,60.0,93,84,73,30.12,30.03,6,1,13,0.00
2013-8-9,74.2,72.8,71.4,73.0,71.5,70.0,98,95,92,30.05,29.78,7,2,19,0.41
2013-8-10,83.9,75.0,66.6,72.0,65.7,56.0,98,75,52,29.99,29.78,8,0,12,0.00
2013-8-11,79.3,68.8,58.1,60.0,56.6,53.0,89,67,43,30.06,29.98,5,0,10,0.00
2013-8-12,79.8,70.2,62.5,71.0,65.6,60.0,96,86,70,30.02,29.91,4,0,6,0.00
2013-8-13,71.7,67.6,63.0,69.0,65.9,62.0,98,94,86,29.91,29.67,3,0,8,0.05
2013-8-14,74.8,67.8,61.7,65.0,57.6,53.0,96,72,49,29.94,29.65,10,1,14,0.00
2013-8-15,77.3,65.6,56.0,58.0,54.6,48.0,89,70,40,30.11,29.94,5,0,13,0.00
2013-8-16,78.8,68.3,57.4,62.0,58.5,53.0,96,74,43,30.18,30.10,5,0,11,0.00
2013-8-17,83.6,70.5,59.0,65.0,61.1,57.0,94,75,45,30.26,30.18,4,0,6,0.00
2013-8-18,79.1,67.4,60.0,66.0,62.0,59.0,96,84,58,30.25,30.07,6,0,6,0.02
2013-8-19,80.5,69.6,58.2,65.0,62.0,57.0,95,79,54,30.07,29.95,5,0,11,0.01
2013-8-20,87.2,74.2,65.0,71.0,65.7,62.0,94,76,50,30.08,29.97,5,0,9,0.01
2013-8-21,87.8,74.9,65.1,69.0,65.9,63.0,92,75,47,30.12,30.03,4,0,10,0.00
2013-8-22,82.1,73.2,67.8,74.0,69.7,66.0,97,89,76,30.04,29.83,5,1,9,0.00
2013-8-23,83.3,73.2,62.8,69.0,62.4,56.0,97,72,42,30.07,29.80,6,1,13,0.00
2013-8-24,80.3,67.5,54.8,60.0,51.7,41.0,88,61,26,30.32,30.07,8,1,12,0.00
2013-8-25,85.0,68.6,53.6,62.0,56.8,49.0,94,69,40,30.34,30.20,5,0,10,0.00
2013-8-26,77.2,70.6,65.6,68.0,64.9,61.0,95,82,69,30.19,29.89,4,0,10,0.09
2013-8-27,79.7,70.8,67.7,72.0,68.9,67.0,98,94,77,29.89,29.81,3,0,8,1.19
2013-8-28,86.4,72.6,64.3,74.0,68.1,64.0,98,87,61,29.91,29.83,5,0,9,0.01
2013-8-29,69.2,65.6,58.7,67.0,63.3,57.0,96,92,87,30.03,29.91,6,1,10,0.00
2013-8-30,76.7,66.6,57.6,70.0,63.4,57.0,97,90,78,29.99,29.84,5,0,9,0.00
2013-8-31,75.8,71.7,68.3,72.0,69.8,67.0,97,93,87,29.84,29.81,5,0,11,0.00
2013-9-1,75.8,72.7,70.9,73.0,71.3,70.0,98,95,91,29.88,29.81,4,0,11,0.22
2013-9-2,76.7,72.5,70.8,75.0,71.6,70.0,99,97,91,29.85,29.70,5,0,10,0.12
2013-9-3,81.1,71.5,65.0,75.0,70.1,64.0,99,95,80,29.80,29.68,4,0,8,1.42
2013-9-4,79.3,68.5,59.3,65.0,61.6,59.0,97,80,52,29.92,29.79,5,0,11,0.01
2013-9-5,73.4,65.3,55.4,65.0,60.7,54.0,97,85,69,30.09,29.86,5,0,9,0.00
2013-9-6,71.8,59.2,49.4,53.0,48.7,44.0,95,71,40,30.21,30.09,4,0,8,0.00
2013-9-7,74.9,63.1,51.1,59.0,53.8,49.0,94,74,46,30.09,29.87,5,1,11,0.00
2013-9-8,78.1,67.8,52.7,66.0,57.0,43.0,94,70,44,30.07,29.73,6,1,14,0.00
2013-9-9,68.9,58.6,47.6,55.0,48.9,43.0,88,72,45,30.22,30.07,7,0,9,0.00
2013-9-10,72.9,66.1,55.7,69.0,62.7,53.0,94,88,80,30.16,30.04,6,1,11,0.00
2013-9-11,90.4,76.3,68.8,78.0,71.7,68.0,97,86,67,30.08,29.97,5,1,11,0.00
2013-9-12,76.0,72.2,69.4,72.0,70.0,68.0,96,92,86,29.98,29.69,11,1,13,0.01
2013-9-13,78.4,70.6,61.7,71.0,67.1,58.0,98,89,71,29.71,29.56,5,0,9,0.10
2013-9-14,71.5,63.2,56.0,58.0,55.8,53.0,90,77,60,30.03,29.72,4,0,9,0.00
2013-9-15,71.2,59.9,51.4,57.0,53.2,50.0,94,80,57,30.15,30.03,3,0,8,0.00
2013-9-16,69.6,59.3,51.4,59.0,55.1,43.0,96,86,65,30.18,30.00,3,0,10,0.02
2013-9-17,64.2,52.2,43.3,45.0,41.5,37.0,91,69,41,30.38,30.19,8,1,11,0.00
2013-9-18,72.4,57.3,44.7,53.0,46.7,40.0,94,72,34,30.31,30.14,3,0,8,0.00
2013-9-19,79.4,62.7,51.5,61.0,54.6,50.0,96,78,44,30.14,30.03,4,0,7,0.00
2013-9-20,79.8,64.4,53.9,62.0,56.8,53.0,97,79,43,30.07,30.00,6,0,9,0.01
2013-9-21,73.9,65.5,54.8,67.0,61.8,54.0,98,88,73,30.02,29.74,10,2,14,0.00
2013-9-22,73.2,66.2,53.9,67.0,60.4,48.0,97,82,61,29.80,29.63,10,1,18,0.72
2013-9-23,66.1,55.5,46.3,49.0,45.4,43.0,87,71,49,29.98,29.79,7,1,12,0.00
2013-9-24,66.8,54.1,44.4,51.0,45.1,40.0,91,73,48,29.98,29.79,5,0,9,0.00
2013-9-25,72.8,57.4,46.2,54.0,49.1,45.0,96,76,50,29.95,29.86,6,1,10,0.00
2013-9-26,68.4,58.0,51.7,52.0,50.2,48.0,92,76,54,30.09,29.95,3,0,10,0.00
2013-9-27,67.6,58.6,49.6,56.0,52.2,48.0,93,80,59,30.23,30.08,5,0,9,0.00
2013-9-28,76.5,60.1,46.8,59.0,52.8,45.0,96,79,49,30.29,30.22,5,0,9,0.00
2013-9-29,71.2,58.2,46.3,56.0,51.8,45.0,98,81,48,30.24,30.08,5,1,10,0.00
2013-9-30,74.0,61.0,50.7,60.0,55.3,49.0,96,83,56,30.07,29.94,5,0,7,0.00
2013-10-1,79.1,61.5,47.6,60.0,53.5,46.0,96,78,41,29.94,29.83,4,0,8,0.00
2013-10-2,80.0,67.9,56.5,64.0,59.5,55.0,96,76,53,29.94,29.82,9,1,11,0.00
2013-10-3,82.1,66.5,57.6,62.0,55.2,50.0,88,70,37,30.06,29.94,4,0,8,0.00
2013-10-4,76.3,61.5,54.2,65.0,56.6,52.0,95,85,62,30.05,30.00,3,0,7,0.00
2013-10-5,70.4,62.5,58.2,64.0,59.4,56.0,96,90,79,30.10,30.02,3,0,6,0.09
2013-10-6,62.8,60.6,58.4,61.0,58.1,56.0,96,91,84,30.18,30.09,10,2,13,0.07
2013-10-7,73.8,69.0,62.1,71.0,67.5,61.0,98,94,88,30.09,29.83,10,2,23,0.07
2013-10-8,70.6,60.5,50.8,66.0,49.6,45.0,95,69,45,30.32,29.86,5,0,14,0.00
2013-10-9,65.9,54.7,48.3,50.0,47.0,44.0,92,76,54,30.40,30.32,9,1,16,0.00
2013-10-10,69.5,58.3,48.9,59.0,53.3,45.0,92,84,68,30.32,30.11,6,1,10,0.00
2013-10-11,70.8,61.0,53.2,61.0,56.1,49.0,96,84,68,30.11,30.05,10,1,10,0.00
2013-10-12,68.4,58.5,52.5,59.0,53.7,49.0,93,84,69,30.33,30.09,9,2,16,0.00
2013-10-13,65.1,53.5,43.6,51.0,47.6,42.0,94,81,58,30.40,30.31,8,1,15,0.00
2013-10-14,68.2,50.9,39.3,51.0,45.6,38.0,97,84,44,30.38,30.25,4,0,6,0.00
2013-10-15,68.7,55.1,43.5,54.0,48.8,43.0,98,81,50,30.25,30.14,4,1,9,0.01
2013-10-16,64.9,56.6,48.5,60.0,54.2,47.0,97,91,83,30.13,29.89,3,0,7,0.00
2013-10-17,68.8,61.8,55.7,63.0,59.1,54.0,97,91,79,29.90,29.73,5,0,9,0.00
2013-10-18,68.8,62.3,49.7,63.0,54.2,47.0,96,77,51,29.91,29.63,8,1,15,0.05
2013-10-19,65.4,55.6,44.9,55.0,47.0,42.0,92,74,54,29.97,29.75,4,0,9,0.00
2013-10-20,62.9,55.4,43.7,55.0,43.8,35.0,95,69,38,30.01,29.69,8,1,12,0.01
2013-10-21,67.0,52.4,41.4,48.0,42.6,39.0,92,72,39,30.11,30.00,5,0,9,0.00
2013-10-22,67.6,55.5,46.2,56.0,50.4,44.0,98,84,66,30.00,29.70,7,0,11,0.00
2013-10-23,52.5,46.5,39.7,44.0,39.8,36.0,94,78,58,29.79,29.57,1,0,4,0.09
2013-10-24,53.7,44.7,38.7,41.0,33.6,27.0,94,68,39,29.89,29.63,7,1,18,0.00
2013-10-25,53.5,43.5,36.0,36.0,31.9,29.0,85,65,45,30.16,29.89,8,0,14,0.00
2013-10-26,55.9,46.6,33.5,44.0,36.5,30.0,94,70,45,30.16,29.87,12,1,18,0.00
2013-10-27,58.9,50.1,40.1,42.0,36.5,32.0,90,61,44,30.06,29.81,7,1,15,0.01
2013-10-28,60.1,46.9,34.7,38.0,34.5,31.0,93,65,41,30.31,30.07,6,0,13,0.00
2013-10-29,55.3,43.2,36.1,37.0,31.1,26.0,90,64,39,30.40,30.32,5,0,8,0.00
2013-10-30,55.5,45.4,34.7,49.0,41.8,33.0,95,87,73,30.36,30.18,3,0,4,0.01
2013-10-31,63.5,54.2,41.1,62.0,52.0,39.0,98,92,85,30.22,29.84,11,2,15,0.05
2013-11-1,69.1,63.9,59.5,65.0,61.0,56.0,95,90,85,29.83,29.53,17,4,28,0.02
2013-11-2,63.6,57.5,54.4,56.0,52.4,48.0,94,83,66,29.70,29.58,4,0,7,0.01
2013-11-3,54.1,44.5,34.3,48.0,37.8,20.0,88,78,52,30.36,29.69,7,1,12,0.00
2013-11-4,48.4,36.0,29.5,29.0,24.8,20.0,87,65,44,30.68,30.36,8,1,12,0.00
2013-11-5,51.6,39.3,30.1,37.0,31.8,25.0,89,76,56,30.68,30.51,6,0,12,0.00
2013-11-6,58.1,49.7,36.9,54.0,45.4,35.0,95,85,68,30.51,30.07,8,1,12,0.00
2013-11-7,62.1,55.9,42.8,61.0,54.2,38.0,97,94,82,30.06,29.67,7,1,17,0.66
2013-11-8,49.6,41.6,33.0,37.0,30.4,24.0,89,66,47,30.10,29.81,6,1,15,0.00
2013-11-9,46.3,38.9,30.7,34.0,27.9,25.0,85,66,44,30.20,30.04,5,0,11,0.00
2013-11-10,57.7,49.2,40.1,45.0,40.2,34.0,87,72,55,30.04,29.71,5,1,12,0.00
2013-11-11,52.9,46.7,40.3,43.0,33.1,28.0,73,60,42,30.09,29.87,11,1,14,0.00
2013-11-12,52.7,38.4,29.6,41.0,30.7,18.0,93,75,60,30.16,29.87,5,1,17,0.16
2013-11-13,40.1,31.0,26.3,19.0,17.3,14.0,71,58,40,30.26,30.16,5,0,12,0.00
2013-11-14,51.4,41.7,26.6,33.0,25.8,19.0,76,55,32,30.19,30.05,13,1,18,0.00
2013-11-15,59.3,49.1,41.0,46.0,37.7,28.0,92,67,39,30.21,30.14,7,1,14,0.00
2013-11-16,61.8,49.0,39.8,46.0,39.7,32.0,95,73,40,30.31,30.20,7,0,9,0.00
2013-11-17,59.5,50.7,38.6,59.0,48.7,37.0,98,93,74,30.30,29.85,5,1,10,0.20
2013-11-18,64.6,58.3,49.8,62.0,52.2,37.0,98,82,57,29.84,29.56,15,3,25,0.37
2013-11-19,49.0,42.1,32.6,36.0,26.2,20.0,65,54,42,30.25,29.66,9,2,18,0.00
2013-11-20,44.2,33.2,27.8,20.0,17.2,14.0,65,53,32,30.59,30.26,7,1,10,0.00
2013-11-21,51.9,38.1,27.8,35.0,26.0,16.0,79,63,43,30.61,30.38,5,0,8,0.00
2013-11-22,53.0,47.8,41.7,52.0,45.5,36.0,96,91,79,30.38,29.81,5,0,8,0.20
2013-11-23,49.5,43.5,32.1,48.0,29.3,17.0,95,60,32,29.86,29.78,11,2,17,0.00
2013-11-24,31.6,26.1,22.5,15.0,5.7,-4.0,56,43,25,30.17,29.79,19,4,24,0.00
2013-11-25,34.0,26.4,18.6,28.0,6.1,-2.0,81,44,22,30.36,30.18,14,1,15,0.00
2013-11-26,46.1,40.8,34.2,45.0,31.3,23.0,96,71,53,30.32,30.01,6,2,15,0.12
2013-11-27,62.1,53.5,38.6,62.0,52.4,35.0,98,96,86,30.00,29.17,23,5,25,1.47
2013-11-28,38.4,33.0,25.7,34.0,19.7,12.0,85,59,43,30.43,29.49,12,2,25,0.00
2013-11-29,39.5,30.0,22.7,19.0,15.7,10.0,66,56,42,30.71,30.43,3,0,8,0.00
2013-11-30,39.7,29.9,19.3,31.0,19.4,10.0,78,65,45,30.75,30.43,8,1,9,0.00
2013-12-1,48.4,44.9,37.4,47.0,40.9,30.0,96,86,73,30.42,29.97,8,2,13,0.01
2013-12-2,43.1,39.7,37.8,41.0,38.2,36.0,97,94,90,29.97,29.89,2,0,5,0.00
2013-12-3,53.4,40.9,36.4,40.0,35.6,33.0,96,83,54,29.93,29.81,6,0,10,0.00
2013-12-4,47.7,37.9,31.4,33.0,31.7,30.0,94,80,55,30.19,29.93,3,0,7,0.00
2013-12-5,55.8,46.4,32.5,55.0,45.1,31.0,98,95,90,30.18,29.94,7,1,12,0.03
2013-12-6,56.2,51.0,38.6,56.0,50.1,37.0,98,96,93,30.09,29.88,5,0,9,0.26
2013-12-7,42.1,35.9,29.4,37.0,31.2,24.0,96,84,66,30.43,30.04,5,0,10,0.20
2013-12-8,33.1,29.8,24.1,25.0,20.5,18.0,84,69,55,30.58,30.43,3,0,8,0.00
2013-12-9,44.1,37.7,30.6,43.0,36.2,22.0,97,94,71,30.45,29.86,10,3,16,0.01
2013-12-10,36.3,32.6,27.2,35.0,31.0,22.0,97,94,80,30.01,29.78,6,0,10,0.05
2013-12-11,33.5,28.9,24.4,23.0,20.8,19.0,90,72,58,30.24,30.02,7,1,13,0.03
2013-12-12,29.9,23.4,15.3,19.0,11.6,5.0,79,62,38,30.25,30.09,6,1,12,0.00
2013-12-13,32.6,25.4,15.0,18.0,13.6,9.0,80,62,48,30.33,30.01,12,2,16,0.00
2013-12-14,31.9,22.0,16.0,31.0,14.8,4.0,95,75,54,30.56,30.08,13,2,19,0.00
2013-12-15,42.9,33.8,28.1,42.0,31.2,23.0,97,90,76,30.05,29.32,19,3,23,1.24
2013-12-16,31.4,27.0,18.7,24.0,15.8,10.0,86,64,45,30.20,29.75,8,1,14,0.01
2013-12-17,30.7,22.4,13.7,30.0,17.3,9.0,95,81,64,30.25,29.88,9,1,12,0.00
2013-12-18,37.2,28.6,20.5,25.0,22.1,19.0,92,78,55,30.10,29.78,5,1,11,0.05
2013-12-19,45.9,36.0,25.3,36.0,27.7,21.0,83,72,61,30.12,29.97,8,1,15,0.07
2013-12-20,53.7,43.2,32.0,46.0,38.1,30.0,96,82,65,30.12,29.95,7,1,14,0.00
2013-12-21,57.3,51.7,46.5,54.0,49.2,45.0,96,91,79,30.00,29.90,9,2,14,0.00
2013-12-22,58.5,56.0,48.9,58.0,54.6,47.0,97,95,88,29.98,29.82,10,3,21,0.00
2013-12-23,52.6,43.0,37.0,51.0,41.9,36.0,97,95,88,30.05,29.91,4,0,10,0.40
2013-12-24,40.4,34.4,29.1,40.0,27.1,20.0,97,76,56,30.18,30.00,7,1,10,0.03
2013-12-25,29.3,23.0,17.8,21.0,9.9,6.0,78,58,42,30.54,30.18,7,1,15,0.00
2013-12-26,40.7,31.8,18.8,38.0,28.2,13.0,94,86,77,30.48,30.04,8,1,11,0.15
2013-12-27,36.8,30.5,26.6,25.0,22.8,20.0,87,74,52,30.28,30.20,7,1,13,0.00
2013-12-28,50.0,36.3,25.8,34.0,29.4,22.0,95,78,51,30.23,30.01,11,1,17,0.00
2013-12-29,47.0,41.8,34.4,46.0,39.3,33.0,97,91,75,30.04,29.30,14,2,22,1.08
2013-12-30,43.4,35.3,23.3,39.0,27.6,15.0,96,75,47,30.12,29.48,10,1,19,0.00
2013-12-31,28.3,23.2,18.8,17.0,12.2,5.0,79,64,48,30.17,30.03,5,0,9,0.00
2014-1-1,31.1,25.7,20.8,16.0,11.9,8.0,69,57,42,30.37,30.18,11,1,15,0.00
2014-1-2,31.1,27.3,23.2,29.0,24.7,15.0,94,90,63,30.32,29.66,13,3,19,0.00